Flag for Argentina Weather past 2 weeks in Río Grande, Tierra del Fuego, Argentina

Now
46 °F

Cool.


Feels Like: 41 °F
Forecast: 40 / 46 °F
Wind: 10 mph from South

Location: Rio Grande B. A.

Current Time: Apr 25, 2015 at 5:22:33 PM

Latest Report: Apr 25, 2015 at 4:00 PM


Visibility: N/A

Pressure: 29.59 "Hg

Humidity: 87%

Dew point: 43 °F

Location of Río GrandeLocation

Historic Weather in Río Grande — Graph

°F

Río Grande temperature yesterday

Maximum temperature yesterday: 43 °F (at 2:00 PM)
Minimum temperature yesterday: 21 °F (at 3:00 AM)
Average temperature yesterday: 33 °F

Past Weeks' High & Low Weather Summary

 TemperatureHumidityPressure
High63 °F (Apr 11, 4:00 PM)100% (Apr 12, 6:00 AM)30.12 "Hg (Apr 12, 6:00 AM)
Low21 °F (Apr 24, 3:00 AM)45% (Apr 15, 4:00 PM)27.97 "Hg (Apr 13, 7:00 AM)
Average43 °F81%29.55 "Hg
* Reported Apr 10 4:00 PM — Apr 25 4:00 PM, Río Grande, Weather by CustomWeather, © 2015

Note: Actual official high and low records may vary slightly from our data, if they occured in-between our weather recording intervals... More about our weather records

Advertising

Río Grande weather history for previous 24 hours

 ConditionsComfort  
Time TempWeatherWind HumidityBarometerVisibility
4:00 PM
Sat, Apr 25
46 °FCool.10 mph87%29.59 "HgN/A
3:00 PM46 °FFog.12 mph87%29.53 "HgN/A
2:00 PM45 °FScattered clouds.8 mph93%29.53 "Hg4 mi
1:00 PM45 °FDrizzle. More clouds than sun.7 mph87%29.50 "Hg2 mi
12:00 PM45 °FFog.8 mph87%29.50 "HgN/A
11:00 AM43 °FFog.8 mph93%29.50 "Hg2 mi
10:00 AM39 °FFog.8 mph100%29.50 "Hg0 mi
9:00 AM39 °FFog.5 mph100%29.50 "Hg1 mi
8:00 AM39 °FFog.3 mph100%29.53 "Hg1 mi
7:00 AM39 °FPartly cloudy.7 mph93%29.56 "Hg1 mi
6:00 AM39 °FPartly cloudy.9 mph93%29.56 "HgN/A
5:00 AM37 °FFog.9 mph100%29.59 "HgN/A
1:00 AM39 °FDrizzle. Mostly cloudy.12 mph93%29.71 "Hg1 mi
12:00 AM39 °FRain. Mostly cloudy.8 mph93%29.71 "Hg1 mi
9:00 PM
Fri, Apr 24
41 °FPassing clouds.5 mph76%29.77 "HgN/A
8:00 PM41 °FClear.3 mph76%29.80 "Hg10 mi
7:00 PM41 °FClear.3 mph81%29.83 "Hg10 mi
6:00 PM41 °FClear.3 mph81%29.83 "Hg10 mi
5:00 PM43 °FSunny.6 mph71%29.83 "Hg10 mi
Weather by CustomWeather, © 2015

See weather overviewHow to use our weather pages